星链-37450(STARLINK-37450)

导读

STARLINK-37450(NORAD编号68818)是美国SpaceX公司星链(Starlink)星座中的一颗低轨互联网通信卫星。作为星链大规模组网计划的组成部分,它运行于近地轨道,主要为全球范围用户提供高速、低时延的宽带互联网接入服务,支持包括偏远地区网络覆盖、海事与航空移动互联等场景应用。星链星座整体规划规模近4.2万颗,该卫星承担着扩展星座全球覆盖范围、提升系统通信容量的任务,依托SpaceX可重复火箭技术完成部署,持续推进全球天基通信网络的建设完善。

基本信息
目录编号:
68818
目录名称:
STARLINK-37450
国际标识:
2026-089S
轨道中心:
EARTH
卫星名称:
星链-37450
卫星全名:
星链-37450(STARLINK-37450)
卫星状态:
在轨 (已飞行134 天)
发射日期:
2026-04-23 UTC
国别 :
美国 (US)
星等 :
--
轨道信息
数据来源 国际轨道数据 AOE轨道数据
星历时间 2026-09-03T21:19:17+0800
1天前
查看轨道信息
2026-08-31T16:00:00+0800
4天前
查看轨道信息
半长轴 6843.698km 6843.71km
偏心率 0.0001852 0.0001854
轨道倾角 97.285° 97.290°
近地点辐角 78.426° 68.376°
升交点赤经 92.580° 89.401°
平近点角 281.719° 158.206°
近地点 464.293km 464.304km
远地点 466.829km 466.842km
周期 93.907分钟 93.907分钟
每日圈数 15.334391 15.334351
详细信息
固有亮度:
5
最大亮度:
2.5
卫星平台:
Starlink V1.0
覆盖范围:
全球
运营商:
太空探索技术公司
运营商所在国:
美国
制造商(研发单位):
太空探索技术公司
制造商所在国:
美国
使用方式:
暂无
卫星简介
Starlink 计划是 SpaceX 推出的全球卫星互联网项目,通过发射低轨道卫星,为全球尤其是偏远地区提供高速、低延迟的互联网服务。自 2019 年起,Starlink 已部署数千颗卫星,旨在缩小全球数字鸿沟,推动互联网普及。该项目还为军事、航空等行业提供通信支持,带来广泛经济效益。
2D轨道图
3D轨道图
轨道高度分析图
轨道倾角分析图
轨道综合分析图
查看轨道综合分析图
交会数据列表
事件ID 空间交会对象 最接近时刻(TCA) 交会距离 交会风险概率(CRP) 交会风险指数(CRI) 操作
CDM_260906-064206-485906-881821
2026-09-06T
06:42:11+0000
0.168 km
中距离
3.969919E-4 高风险 0.87
CDM_260906-055506-485906-881821
2026-09-06T
05:55:12+0000
0.577 km
远距离
2.502144E-5 中风险 0.63
CDM_260906-082805-180906-881821
2026-09-06T
08:28:25+0000
2.282 km
极远距离
2.036866E-6 低风险 0.41
CDM_260904-173105-977006-881821
2026-09-04T
17:31:15+0000
2.427 km
极远距离
1.851507E-6 低风险 0.4
CDM_260904-151905-284506-881821
2026-09-04T
15:19:27+0000
2.484 km
极远距离
1.743455E-6 低风险 0.4
CDM_260905-190106-264806-881821
LIME (62648)
2026-09-05T
19:01:03+0000
2.997 km
极远距离
1.265129E-6 低风险 0.37
CDM_260904-073104-814206-881821
2026-09-04T
07:31:11+0000
2.643 km
极远距离
1.135585E-6 低风险 0.36
CDM_260906-042106-485906-881821
2026-09-06T
04:21:14+0000
1.964 km
极远距离
5.778621E-7 极低风险 0.3
CDM_260906-081606-485906-881821
2026-09-06T
08:16:09+0000
1.983 km
极远距离
5.658044E-7 极低风险 0.3
CDM_260906-050806-485906-881821
2026-09-06T
05:08:13+0000
2.213 km
极远距离
4.594457E-7 极低风险 0.28